Regional Weather Roundup
Issued by NWS

Home | Current Version | Previous Version | Graphics & Text | Print | Product List | Glossary On
Versions: 1 2 3 4 5 6 7 8 9 10 11 12 13 14 15 16 17 18 19 20 21 22 23 24 25 26 27 28 29 30 31 32 33 34 35 36 37 38 39 40 41 42 43 44 45 46 47 48 49 50
000
ASUS43 KDMX 250203
RWRIA

WEATHER ROUNDUP FOR IOWA
NATIONAL WEATHER SERVICE DES MOINES IA
900 PM CDT TUE MAY 24 2016

NOTE: "FAIR" INDICATES FEW OR NO CLOUDS BELOW 12,000 FEET WITH NO
SIGNIFICANT WEATHER AND/OR OBSTRUCTIONS TO VISIBILITY.

* - THESE STATIONS ARE NOT NWS STATIONS...THUS NOT UNDER NWS
QUALITY CONTROL.  THEY ALSO DO NOT REPORT WEATHER SUCH
AS PRECIPITATION OR FOG.

IAZ001>003-012>014-020>022-031>034-043>046-250300-
   NORTHWEST IOWA

CITY           SKY/WX    TMP DP  RH WIND       PRES   REMARKS
CARROLL *      CLEAR     73  68  83 E7        29.89R
CHEROKEE *     CLEAR     73  64  73 SE9       29.87R
DENISON *      CLEAR     73  63  68 SE6       29.86R
LE MARS *      CLEAR     75  64  69 SE5       29.85F
ORANGE CITY *  CLEAR     75  64  69 SE5       29.86S
SHELDON *      CLEAR     73  66  78 SE7       29.85S
SIOUX CITY     CLEAR     76  65  68 SE9       29.84S
SPENCER        PTCLDY    74  60  61 SE9       29.88R
STORM LAKE *   CLEAR     73  63  68 SE10      29.89S
$$

IAZ055>058-069>071-079>083-090>094-250300-
   SOUTHWEST IOWA

CITY           SKY/WX    TMP DP  RH WIND       PRES   REMARKS
ATLANTIC *     CLEAR     77  59  53 SE5       29.88R
AUDUBON *      CLEAR     72  63  73 CALM      29.90S
CLARINDA *       N/A     73  64  73 MISG      29.89F
COUNCIL BLFS * CLEAR     73  61  64 SE5       29.86F
CRESTON *      CLEAR     72  63  73 S7        29.91F
HARLAN  *        N/A    N/A N/A N/A MISG        N/A
LAMONI         CLEAR     71  63  75 SE5       29.91S
RED OAK *      CLEAR     75  63  64 SE9       29.87S
SHENANDOAH *   CLEAR     75  66  73 SE10      29.87F
$$

IAZ047>049-059>061-072>074-084-250300-
   CENTRAL IOWA

CITY           SKY/WX    TMP DP  RH WIND       PRES   REMARKS
AMES           CLEAR     70  64  81 E3        29.89S
ANKENY *       CLEAR     73  61  64 S5        29.88F
BOONE *        CLEAR     75  64  69 CALM      29.89S
CHARITON *     CLEAR     72  63  73 SE8       29.91S
DES MOINES     PTCLDY    76  60  57 S7        29.88F
GRINNELL*      CLEAR     75  59  57 S7        29.91S
KNOXVILLE *    CLEAR     73  64  73 S8        29.89S
MARSHALLTOWN   CLEAR     75  60  59 SW5       29.89S
NEWTON *       CLEAR     75  63  64 S8        29.90S
PELLA *        CLEAR     75  64  68 S7        29.91
PERRY *          N/A     75  66  73 SE6       29.88F
$$

IAZ004>006-015-016-023>025-035-036-250300-
   NORTH CENTRAL IOWA

CITY           SKY/WX    TMP DP  RH WIND       PRES   REMARKS
ALGONA *       CLEAR     73  61  64 SE7       29.90R
CLARION *      CLEAR     75  66  73 CALM      29.90S
ESTHERVILLE    CLEAR     74  59  59 SE13      29.88R
FORT DODGE *   CLEAR     73  61  64 S3        29.90S
MASON CITY     CLEAR     71  64  78 CALM      29.92R
FOREST CITY *  CLEAR     68  61  77 CALM      29.91R
WEBSTER CITY * CLEAR     72  66  83 S6        29.88S
IOWA FALLS *     N/A     75  61  60 S5        29.91S
$$

IAZ007>011-017>019-026>030-037>042-050>054-066-250300-
   NORTHEAST IOWA

CITY           SKY/WX    TMP DP  RH WIND       PRES   REMARKS
CEDAR RAPIDS   CLOUDY    74  65  73 S7        29.90R
CHARLES CITY * CLEAR     77  57  50 SE3       29.92R
CLINTON *      PTCLDY    76  59  55 SW6       29.92R
DECORAH *      CLEAR     75  61  60 E8        29.92R
DUBUQUE        PTCLDY    72  63  73 E5        29.93S
MONTICELLO *   CLOUDY    77  63  61 S5        29.91S
OELWEIN *      CLEAR     77  59  53 SE6       29.92S
WATERLOO       CLEAR     76  58  53 SE3       29.89S
$$

IAZ064-065-067-068-078-250300-
   EAST CENTRAL IOWA

CITY           SKY/WX    TMP DP  RH WIND       PRES   REMARKS
DAVENPORT      MOCLDY    78  59  51 SW6       29.93R
IOWA CITY      CLOUDY    78  64  61 S6        29.92R HX  80
MT. PLEASANT * CLOUDY    77  66  69 S8        29.94R
MUSCATINE *    CLOUDY    79  64  61 SW8       29.92R HX  81
QUAD CITIES    CLOUDY    78  60  53 S5        29.91R
$$

IAZ062-063-075>077-085>089-095>099-250300-
   SOUTHEAST IOWA

CITY           SKY/WX    TMP DP  RH WIND       PRES   REMARKS
BURLINGTON     CLOUDY    73  63  70 SW6       29.94R
FAIRFIELD *      N/A    N/A N/A N/A MISG        N/A
FORT MADISON * CLOUDY    73  63  68 S3        29.95S
KEOKUK *       CLOUDY    72  64  78 CALM      29.94R
OSKALOOSA *      N/A     73  64  73 S8        29.92S
OTTUMWA        CLEAR     73  64  73 S9        29.92R
WASHINGTON *   CLEAR     75  66  73 SW9       29.93S
$$

ABBREVIATIONS USED IN REMARKS
   TC - TEMPERATURES IN CELSIUS
  WCI - WIND CHILL INDEX
   HX - HEAT INDEX
  VSB - VISIBILITY
$$





USA.gov is the U.S. government's official web portal to all federal, state and local government web resources and services.